Volver al catálogo

COSMOS 90

ActivoMilitarLEO
NORAD 1588·PAYLOAD·🇷🇺 Russia

Lanzado Sep 18, 1965 desde Baikonur Cosmodrome

Loading…

Próximos Pases (próximas 24 horas)

TLE

ActualizadoSource: Space-Track

Época: Sep 14, 2026, 08:18 UTC

1 01588U 65073E   26257.34598492 -.00000095  00000-0 -29288-4 0  9998
2 01588  56.0580  38.2211 0154410 195.0598 182.4249 12.34593837750004

Sigue COSMOS 90 en tiempo real con AllMySat

Download on the App Store